EW2998 Weather Reports


Display with metric or nautical units.
time (UTC)temp
F
wind
direction
speed
MPH
gust
MPH
rain 1hr
in
rain 24hr
in
rain mn
in
humidity
%
barometer
mb
20260507010002 63 337 2.0 9.0 0.04 0.22 0.22 88 1007.9
20260507005003 64 264 0.0 1.0 0.00 0.18 0.18 89 1007.6
20260507004502 64 239 0.0 1.0 0.00 0.18 0.18 89 1007.4
20260507004002 64 0 0.0 0.0 0.00 0.18 0.18 89 1007.4
20260507003503 64 0 0.0 0.0 0.00 0.18 0.18 89 1007.5
20260507003002 64 235 0.0 2.0 0.00 0.18 0.18 89 1007.5
20260507002002 64 232 0.0 1.0 0.00 0.18 0.18 88 1007.5
20260507001505 64 232 0.0 1.0 0.00 0.18 0.18 88 1007.1
20260507001002 64 232 0.0 1.0 0.00 0.18 0.18 88 1007.1
20260507000502 65 232 0.0 1.0 0.00 0.18 0.18 88 1006.9
20260507000003 65 232 0.0 1.0 0.00 0.18 0.18 87 1006.8
20260506235002 65 232 0.0 1.0 0.00 0.18 0.18 87 1006.6
20260506234502 65 232 0.0 1.0 0.00 0.18 0.18 87 1006.7
20260506234003 65 232 0.0 1.0 0.00 0.18 0.18 87 1006.4
20260506233002 65 230 0.0 2.0 0.00 0.18 0.18 86 1006.3
20260506232503 66 255 0.0 2.0 0.00 0.18 0.18 86 1006.4
20260506232003 66 235 0.0 3.0 0.00 0.18 0.18 86 1006.6
20260506231502 66 239 1.0 3.0 0.00 0.18 0.18 85 1006.6
20260506230503 66 228 1.0 6.0 0.00 0.18 0.18 85 1006.5
20260506225003 66 231 1.0 4.0 0.00 0.18 0.18 84 1006.5
20260506224002 67 228 1.0 6.0 0.00 0.18 0.18 83 1006.5
20260506223502 67 233 2.0 8.0 0.00 0.18 0.18 83 1006.5
20260506223003 67 228 2.0 8.0 0.00 0.18 0.18 82 1006.6
20260506222503 67 220 2.0 6.0 0.00 0.18 0.18 83 1006.4
20260506222002 67 227 2.0 9.0 0.00 0.18 0.18 83 1006.5
20260506221502 67 228 2.0 9.0 0.00 0.18 0.18 83 1006.5
20260506221003 67 231 2.0 7.0 0.00 0.18 0.18 83 1006.4
20260506220002 67 230 1.0 7.0 0.00 0.18 0.18 83 1006.4
20260506215502 67 233 1.0 5.0 0.00 0.18 0.18 83 1006.4
20260506215003 67 226 2.0 5.0 0.00 0.18 0.18 82 1006.2
20260506214502 67 229 1.0 5.0 0.00 0.18 0.18 82 1006.2
20260506214002 67 230 1.0 5.0 0.00 0.18 0.18 82 1006.2
20260506213503 67 228 1.0 4.0 0.00 0.18 0.18 83 1006.0
20260506213003 67 229 2.0 6.0 0.00 0.18 0.18 82 1005.8
20260506212502 67 228 2.0 6.0 0.00 0.18 0.18 82 1005.9
20260506212002 67 223 1.0 7.0 0.00 0.18 0.18 83 1005.9
20260506211503 67 222 1.0 7.0 0.00 0.18 0.18 83 1005.9
20260506211005 67 220 1.0 3.0 0.00 0.18 0.18 84 1006.0
20260506205502 66 223 2.0 6.0 0.00 0.18 0.18 84 1005.7
20260506205003 66 226 2.0 8.0 0.00 0.18 0.18 83 1005.7
20260506204002 66 233 1.0 4.0 0.00 0.18 0.18 83 1005.9
20260506203503 67 232 1.0 4.0 0.00 0.18 0.18 83 1006.0
20260506203004 67 270 1.0 6.0 0.00 0.18 0.18 83 1005.9
20260506202503 67 257 1.0 6.0 0.00 0.18 0.18 82 1005.9
20260506202002 67 225 2.0 7.0 0.00 0.18 0.18 83 1005.8
20260506201502 67 229 2.0 7.0 0.00 0.18 0.18 82 1005.8
20260506201003 67 233 3.0 8.0 0.00 0.18 0.18 83 1005.8
20260506200502 67 231 3.0 8.0 0.00 0.18 0.18 84 1005.9
20260506200003 66 228 2.0 6.0 0.00 0.18 0.18 84 1005.8
20260506195503 66 226 2.0 9.0 0.00 0.18 0.18 85 1005.7
20260506195002 65 226 2.0 9.0 0.00 0.18 0.18 86 1006.0
20260506194502 64 228 3.0 10.0 0.00 0.18 0.18 86 1006.0
20260506194003 64 227 3.0 10.0 0.00 0.18 0.18 86 1006.1
20260506193505 64 224 2.0 9.0 0.00 0.18 0.18 86 1006.2
20260506193003 64 227 2.0 7.0 0.00 0.18 0.18 86 1006.2
20260506192503 64 223 3.0 8.0 0.00 0.18 0.18 86 1006.3
20260506192002 65 222 4.0 9.0 0.00 0.18 0.18 87 1006.3
20260506191502 65 225 3.0 9.0 0.00 0.18 0.18 86 1006.3
20260506190502 65 223 3.0 11.0 0.00 0.18 0.18 87 1006.3
20260506190002 65 222 3.0 11.0 0.00 0.18 0.18 88 1006.3
20260506185502 64 222 3.0 9.0 0.00 0.18 0.18 89 1006.3
20260506185003 64 217 3.0 9.0 0.00 0.18 0.18 89 1006.4
20260506184502 63 222 4.0 11.0 0.00 0.18 0.18 90 1006.3
20260506184003 63 219 3.0 11.0 0.00 0.18 0.18 90 1006.3
20260506183003 62 226 3.0 11.0 0.00 0.18 0.18 91 1006.4
20260506182004 61 227 3.0 10.0 0.00 0.18 0.18 91 1006.5
20260506181003 61 224 3.0 9.0 0.00 0.18 0.18 92 1006.7
20260506180503 61 217 2.0 10.0 0.00 0.18 0.18 92 1006.6
20260506180003 60 224 3.0 10.0 0.00 0.18 0.18 92 1006.9
20260506175003 60 226 3.0 8.0 0.00 0.18 0.18 92 1006.9
20260506174502 60 223 3.0 13.0 0.00 0.18 0.18 92 1006.9
20260506174002 60 226 3.0 13.0 0.00 0.18 0.18 92 1006.9
20260506172505 60 217 3.0 12.0 0.00 0.18 0.18 92 1006.7
20260506171502 60 219 3.0 14.0 0.00 0.18 0.18 92 1006.7
20260506171003 60 221 4.0 14.0 0.00 0.18 0.18 92 1006.8
20260506170503 60 211 3.0 11.0 0.00 0.18 0.18 92 1006.8
20260506170003 60 202 2.0 7.0 0.00 0.18 0.18 92 1006.7
20260506165502 60 202 3.0 9.0 0.00 0.18 0.18 92 1006.7
20260506164503 60 202 4.0 10.0 0.01 0.18 0.18 92 1006.9
20260506164003 60 204 3.0 8.0 0.02 0.18 0.18 92 1007.0
20260506163502 60 207 3.0 10.0 0.03 0.18 0.18 92 1007.0
20260506163002 60 211 3.0 11.0 0.04 0.18 0.18 92 1007.1
20260506162502 60 212 3.0 13.0 0.04 0.18 0.18 93 1007.1
20260506162003 60 203 3.0 13.0 0.05 0.18 0.18 93 1006.9
20260506161503 60 196 4.0 13.0 0.06 0.18 0.18 93 1007.2
20260506161003 60 192 4.0 13.0 0.07 0.18 0.18 93 1007.1
20260506160502 60 188 3.0 10.0 0.08 0.18 0.18 93 1006.8
20260506154503 59 192 3.0 7.0 0.09 0.17 0.17 93 1006.8
20260506154003 60 191 2.0 8.0 0.08 0.16 0.16 93 1007.3
20260506153502 60 188 2.0 8.0 0.07 0.15 0.15 93 1007.6
20260506152502 60 198 3.0 8.0 0.07 0.14 0.14 92 1007.9
20260506151503 60 185 2.0 8.0 0.06 0.12 0.12 92 1007.9
20260506150502 60 195 2.0 6.0 0.05 0.10 0.10 92 1008.0
20260506144502 60 192 3.0 8.0 0.05 0.08 0.08 92 1007.8
20260506144002 60 186 3.0 10.0 0.06 0.08 0.08 92 1007.7
20260506143503 60 183 3.0 10.0 0.06 0.08 0.08 92 1007.8
20260506143003 60 186 2.0 6.0 0.07 0.08 0.08 91 1007.5
20260506142002 60 191 2.0 6.0 0.07 0.07 0.07 91 1007.7
20260506141503 60 194 2.0 6.0 0.06 0.06 0.06 91 1008.0
20260506141003 60 184 2.0 10.0 0.06 0.06 0.06 91 1007.9
20260506140503 60 184 2.0 10.0 0.05 0.05 0.05 91 1008.0
20260506140005 60 186 2.0 6.0 0.05 0.05 0.05 90 1007.9
20260506135003 60 187 1.0 5.0 0.03 0.03 0.03 89 1007.9
20260506134003 61 187 2.0 8.0 0.02 0.02 0.02 88 1007.8
20260506132503 62 190 1.0 4.0 0.00 0.00 0.00 86 1007.9
20260506132004 62 194 1.0 4.0 0.00 0.00 0.00 86 1007.8
20260506131503 62 195 1.0 4.0 0.00 0.00 0.00 85 1007.7
20260506131003 62 203 2.0 8.0 0.00 0.00 0.00 85 1007.8
20260506130502 62 199 2.0 8.0 0.00 0.00 0.00 85 1007.8
20260506130003 62 189 2.0 6.0 0.00 0.00 0.00 84 1007.9
20260506125502 62 198 3.0 7.0 0.00 0.00 0.00 84 1007.9
20260506125003 62 202 3.0 10.0 0.00 0.00 0.00 83 1008.0
20260506124003 62 197 2.0 6.0 0.00 0.00 0.00 83 1008.0
20260506123503 63 198 2.0 7.0 0.00 0.00 0.00 83 1008.0
20260506123002 63 210 3.0 9.0 0.00 0.00 0.00 82 1008.2
20260506122502 63 218 3.0 10.0 0.00 0.00 0.00 82 1008.2
20260506122002 63 213 3.0 10.0 0.00 0.00 0.00 82 1008.1
20260506121503 63 211 3.0 11.0 0.00 0.00 0.00 82 1008.2
20260506121003 63 208 3.0 11.0 0.00 0.00 0.00 82 1008.1
20260506120502 63 206 3.0 10.0 0.00 0.00 0.00 82 1007.9
20260506120002 62 211 3.0 10.0 0.00 0.00 0.00 82 1008.0
20260506115502 62 220 3.0 10.0 0.00 0.00 0.00 82 1007.8
20260506115005 62 210 4.0 10.0 0.00 0.00 0.00 82 1007.7
20260506114503 62 203 3.0 10.0 0.00 0.00 0.00 82 1007.7
20260506114002 62 198 2.0 7.0 0.00 0.00 0.00 82 1007.6
20260506113502 62 201 3.0 8.0 0.00 0.00 0.00 82 1007.5
20260506112503 62 201 3.0 6.0 0.00 0.00 0.00 82 1007.6
20260506111502 62 195 3.0 11.0 0.00 0.00 0.00 82 1007.5
20260506110503 62 189 3.0 10.0 0.00 0.00 0.00 82 1007.4
20260506105502 62 194 3.0 10.0 0.00 0.00 0.00 81 1007.4
20260506105002 62 193 3.0 9.0 0.00 0.00 0.00 82 1007.3
20260506103503 62 195 3.0 10.0 0.00 0.00 0.00 81 1007.4
20260506102503 62 190 4.0 9.0 0.00 0.00 0.00 81 1007.2
20260506102003 62 189 4.0 13.0 0.00 0.00 0.00 81 1007.1
20260506101502 62 187 4.0 13.0 0.00 0.00 0.00 81 1007.3
20260506101002 62 191 4.0 9.0 0.00 0.00 0.00 81 1007.2
20260506100502 62 193 4.0 9.0 0.00 0.00 0.00 81 1007.2
20260506100003 63 192 4.0 10.0 0.00 0.00 0.00 80 1007.1
20260506095503 63 189 3.0 10.0 0.00 0.00 0.00 80 1007.0
20260506095002 63 190 3.0 10.0 0.00 0.00 0.00 80 1007.1
20260506094502 63 193 3.0 8.0 0.00 0.00 0.00 80 1007.2
20260506094006 63 188 3.0 10.0 0.00 0.00 0.00 80 1007.1
20260506093503 63 187 4.0 10.0 0.00 0.00 0.00 79 1007.0
20260506093003 63 187 4.0 10.0 0.00 0.00 0.00 79 1007.1
20260506092502 63 191 4.0 9.0 0.00 0.00 0.00 79 1007.1
20260506092002 63 197 4.0 8.0 0.00 0.00 0.00 78 1007.2
20260506091502 64 194 4.0 9.0 0.00 0.00 0.00 78 1007.2
20260506091003 64 188 4.0 10.0 0.00 0.00 0.00 78 1007.3
20260506090503 64 193 4.0 10.0 0.00 0.00 0.00 77 1007.3
20260506090003 64 197 3.0 12.0 0.00 0.00 0.00 77 1007.3
20260506085503 64 190 3.0 12.0 0.00 0.00 0.00 77 1007.3
20260506085003 64 193 3.0 9.0 0.00 0.00 0.00 77 1007.4
20260506084504 64 198 3.0 9.0 0.00 0.00 0.00 77 1007.5
20260506084002 64 195 3.0 9.0 0.00 0.00 0.00 76 1007.3
20260506083503 64 191 3.0 9.0 0.00 0.00 0.00 76 1007.3
20260506083002 64 191 3.0 9.0 0.00 0.00 0.00 76 1007.3
20260506082504 64 194 3.0 8.0 0.00 0.00 0.00 76 1007.3
20260506081503 64 189 3.0 9.0 0.00 0.00 0.00 75 1007.3
20260506081002 64 188 3.0 7.0 0.00 0.00 0.00 75 1007.4
20260506080506 64 190 3.0 7.0 0.00 0.00 0.00 75 1007.3
20260506073503 65 190 2.0 8.0 0.00 0.00 0.00 73 1007.4
20260506073003 65 196 2.0 7.0 0.00 0.00 0.00 73 1007.5
20260506072503 65 191 2.0 6.0 0.00 0.00 0.00 72 1007.5
20260506072002 65 189 2.0 6.0 0.00 0.00 0.00 72 1007.6
20260506071503 65 191 2.0 7.0 0.00 0.00 0.00 72 1007.6
20260506071003 65 192 3.0 7.0 0.00 0.00 0.00 72 1007.6
20260506070502 65 188 2.0 8.0 0.00 0.00 0.00 72 1007.6
20260506062503 65 188 2.0 4.0 0.00 0.00 0.00 70 1008.1
20260506062002 65 188 2.0 5.0 0.00 0.00 0.00 70 1008.1
20260506060502 65 187 2.0 4.0 0.00 0.00 0.00 69 1008.3
20260506051003 65 203 1.0 4.0 0.00 0.00 0.00 66 1008.6
20260506050502 66 198 1.0 4.0 0.00 0.00 0.00 66 1008.7
20260506045002 66 197 2.0 8.0 0.00 0.00 0.00 65 1008.9
20260506044503 66 200 2.0 8.0 0.00 0.00 0.00 64 1008.8
20260506043503 66 200 2.0 6.0 0.00 0.00 0.00 64 1008.9
20260506043002 66 188 2.0 5.0 0.00 0.00 0.00 64 1008.7
20260506042503 66 188 2.0 6.0 0.00 0.00 0.00 64 1008.8
20260506042003 66 193 2.0 6.0 0.00 0.00 0.00 64 1008.9
20260506041502 66 187 2.0 6.0 0.00 0.00 0.00 64 1008.9
20260506040502 66 192 2.0 6.0 0.00 0.00 0.00 64 1008.8
20260506040004 65 188 1.0 4.0 0.00 0.00 0.00 64 1009.0
20260506035504 65 191 2.0 5.0 0.00 0.00 0.00 64 1008.9
20260506035003 65 195 1.0 5.0 0.00 0.00 0.00 64 1008.9
20260506034503 65 190 1.0 4.0 0.00 0.00 0.00 64 1008.8
20260506034002 65 190 1.0 3.0 0.00 0.00 0.00 63 1008.8
20260506033502 65 193 0.0 3.0 0.00 0.00 0.00 63 1008.8
20260506032503 65 188 0.0 2.0 0.00 0.00 0.00 62 1008.7
20260506032002 65 177 0.0 2.0 0.00 0.00 0.00 62 1008.8
20260506031503 66 175 0.0 3.0 0.00 0.00 0.00 61 1008.8
20260506031003 66 187 1.0 3.0 0.00 0.00 0.00 61 1008.8
20260506030503 66 202 1.0 4.0 0.00 0.00 0.00 61 1008.8
20260506030003 66 203 1.0 5.0 0.00 0.00 0.00 61 1008.7
20260506025502 66 208 1.0 5.0 0.00 0.00 0.00 62 1008.7
20260506025004 66 217 1.0 3.0 0.00 0.00 0.00 62 1008.8
20260506023003 66 226 0.0 3.0 0.00 0.00 0.00 63 1008.8
20260506022503 66 193 0.0 2.0 0.00 0.00 0.00 63 1009.0
20260506022003 66 182 0.0 3.0 0.00 0.00 0.00 63 1008.9
20260506021503 66 177 0.0 3.0 0.00 0.00 0.00 62 1008.9
20260506021002 66 188 0.0 2.0 0.00 0.00 0.00 62 1009.0
20260506020503 66 196 0.0 1.0 0.00 0.00 0.00 62 1009.0
20260506020003 66 228 0.0 1.0 0.00 0.00 0.00 61 1009.0
20260506015504 67 208 0.0 2.0 0.00 0.00 0.00 60 1008.8
20260506015003 67 224 1.0 2.0 0.00 0.00 0.00 60 1008.8
20260506014502 67 230 1.0 3.0 0.00 0.00 0.00 59 1008.9
20260506013503 68 234 1.0 3.0 0.00 0.00 0.00 58 1008.6
20260506013003 68 226 1.0 3.0 0.00 0.00 0.00 58 1008.6
20260506012503 68 215 1.0 6.0 0.00 0.00 0.00 58 1008.5
20260506012003 68 215 1.0 6.0 0.00 0.00 0.00 57 1008.4
20260506011503 68 215 1.0 4.0 0.00 0.00 0.00 57 1008.3
20260506011003 69 219 1.0 5.0 0.00 0.00 0.00 57 1008.2